Regional Weather Roundup
Issued by NWS Midland/Odessa, TX

Skip options and go directly to product.
Home | Oldest Version | Previous Version | Current Version | All | Text Only | Save Text | Print | Product List | Glossary On

Skip product version selection by date and time.   
906
ASUS44 KMAF 130010
RWRMAF
MIDLAND AREA WEATHER ROUNDUP
NATIONAL WEATHER SERVICE MIDLAND TX
600 PM CST FRI FEB 12 2016

...IN SOUTHWEST TEXAS AND SOUTHEAST NEW MEXICO...

CITY           SKY/WX    TMP DP  RH WIND       PRES   REMARKS
ALPINE         CLEAR     69  22  17 NE9       30.33R
ANDREWS        FAIR      69  28  21 E8        30.26R
ARTESIA        CLEAR     68  27  21 SE3       30.24S
BIG SPRING     CLEAR     67  30  25 NE8       30.28R
CARLSBAD       CLEAR     70  23  17 E3        30.22R
DRYDEN           N/A     80  19  10 VRB5      30.17R
FORT STOCKTON  CLEAR     72  23  16 E8        30.22S
GUAD PASS      CLEAR     64  14  14 E9        30.32R
HOBBS          CLEAR     70  18  13 SE9       30.25R
MARFA          CLEAR     71   6   8 SE5       30.29R
MIDLAND AIRPK  CLEAR     72  29  20 E10       30.26R
MIDLAND INTL   CLEAR     72  29  20 E12       30.24R
ODESSA         CLEAR     72  26  18 E9        30.25R
PECOS          CLEAR     73  25  16 NE6       30.21R
PRESIDIO       FAIR      79   7   6 CALM      30.18S
SEMINOLE       CLEAR     68  26  20 SE12      30.27R
SNYDER           N/A     66  31  27 E13       30.28R
WINK           CLEAR     74  22  14 E6        30.20S
$$
...OTHER STATIONS IN TEXAS...

CITY           SKY/WX    TMP DP  RH WIND       PRES   REMARKS
ABILENE        CLEAR     67  32  27 E9        30.27R
AMARILLO       CLEAR     60  28  29 SE15      30.31R
AUSTIN         CLEAR     72  42  34 NE12      30.20R
BROWNSVILLE    CLEAR     70  59  68 SE12      30.19R
CORPUS CHRISTI PTCLDY    73  57  57 SE17      30.17R
DALLAS FTW     CLEAR     65  36  34 NE9       30.28R
DEL RIO        CLEAR     82  25  12 SE5       30.13S
EL PASO        CLEAR     73  11   9 CALM      30.23R
HOUSTON INT    CLEAR     72  54  53 CALM      30.20R
LUBBOCK        CLEAR     65  24  21 SE12      30.28R
SAN ANGELO     CLEAR     72  32  23 NE10      30.24R
SAN ANTONIO    CLEAR     75  46  35 SE10      30.18R
WACO           CLEAR     67  36  31 NE10      30.25R
WICHITA FALLS  NOT AVBL
$$
...OTHER LOCATIONS IN NEW MEXICO...

CITY           SKY/WX    TMP DP  RH WIND       PRES   REMARKS
ALAMAGORDO     CLEAR     72  10   9 SW6       30.24S
ALBUQUERQUE    CLEAR     66  18  15 SE3       30.28F
CANNON AFB     CLEAR     65  22  19 S9        30.27R
CLOVIS         CLEAR     64  23  20 SE12      30.29S
HOLLOMAN AFB   CLEAR     72   2   6 SE5       30.22R
ROSWELL        CLEAR     71  20  14 CALM      30.23R
RUIDOSO        CLEAR     59  16  18 SE9       30.37R
SANTA FE       CLEAR     62  15  16 SW8       30.31S
TRUTH OR CONSE CLEAR     71   2   6 S5        30.25R
TUCUMCARI      CLEAR     66  22  18 SE10      30.25S
$$

USA.gov is the U.S. government's official web portal to all federal, state and local government web resources and services.